Wind_Speed
16 14 14 14 13 13 13 12 11 10 9 9 9 9 8 8 8 8 8 8 7 8 8 8 8 8 7 7 7 6 6 7 6 5 5 6 6 6 5 4 1 0 2 3 3 2 4 5 7 8 9 9 9 9 7 7 7 7 7 7 7 7 8
13 14 15 14 13 13 13 12 11 10 9 9 8 8 8 8 7 8 8 7 7 7 7 7 7 7 7 7 7 6 6 6 6 4 4 7 7 6 7 7 4 3 3 2 2 2 2 5 6 5 7 8 9 8 7 7 8 7 8 8 7 8 9
13 14 14 13 13 14 14 12 11 11 10 9 8 7 7 7 7 7 7 8 8 7 7 7 7 7 7 7 7 6 6 6 6 5 4 6 7 5 5 7 6 5 5 4 3 2 2 5 6 6 7 7 8 8 7 8 8 8 8 8 7 8 9
16 15 14 14 14 14 14 13 12 11 10 9 9 7 7 7 7 7 7 7 8 7 7 6 7 7 7 7 7 6 6 6 5 5 4 4 4 5 5 5 5 4 4 4 5 4 2 4 6 6 7 8 9 9 8 8 8 8 8 8 8 9 9
17 15 15 14 14 14 14 13 11 10 9 9 9 8 7 8 8 8 7 6 6 6 7 6 6 6 6 7 7 6 7 6 5 5 4 4 4 6 5 3 2 2 2 2 5 5 3 4 6 6 8 8 9 10 10 9 8 8 8 8 9 9 9
15 14 14 14 13 14 13 13 12 11 10 10 10 9 9 10 9 8 7 6 5 6 6 6 5 5 6 7 7 7 7 7 6 5 5 5 5 5 5 4 3 4 3 2 4 5 4 5 6 7 8 8 9 10 11 10 10 9 8 8 9 9 10
15 14 14 14 13 13 12 12 11 10 11 11 11 10 10 11 10 9 8 6 6 6 6 6 5 5 5 5 7 8 8 7 6 5 5 5 6 5 6 6 6 6 4 4 5 6 6 7 7 9 9 9 9 11 11 10 10 10 9 9 9 9 9
14 13 12 13 14 13 12 13 11 10 11 11 11 11 11 11 10 9 8 7 7 6 7 6 6 5 5 5 7 7 7 7 7 6 6 6 6 6 6 7 7 6 5 5 6 6 7 7 8 9 9 8 7 8 9 9 9 9 10 10 9 9 9
13 13 12 13 14 13 13 13 12 12 12 11 11 11 11 11 10 10 8 8 8 7 7 7 6 6 6 7 7 8 8 8 7 7 6 6 7 7 8 7 7 6 5 5 6 7 7 7 8 9 8 7 7 6 6 7 8 9 10 9 9 8 9
14 14 13 13 14 13 13 13 13 12 12 11 11 10 11 11 11 10 9 8 8 8 8 7 7 7 7 8 9 9 9 8 8 7 6 6 6 7 8 7 6 6 5 5 6 7 6 6 8 8 7 7 7 6 5 5 6 8 9 8 8 9 9
17 16 13 14 14 13 13 13 13 13 12 11 11 11 11 11 11 10 9 9 9 9 8 8 8 8 8 9 9 9 9 8 7 7 6 7 6 6 7 7 6 6 6 6 7 7 7 7 8 7 6 5 5 5 5 5 5 7 8 7 7 10 11
19 16 14 15 15 14 14 13 13 13 12 12 12 12 12 12 11 10 9 9 9 9 9 9 9 9 9 10 10 9 9 8 8 7 7 7 7 7 7 7 7 7 7 7 8 8 8 8 8 8 7 6 5 5 5 6 6 6 7 7 7 9 12
19 16 15 16 15 14 14 13 13 13 13 12 12 12 12 12 11 10 9 9 9 9 10 10 10 10 10 10 10 10 9 8 8 8 7 8 9 9 9 8 8 8 8 9 9 9 9 9 8 7 7 6 6 5 4 6 7 7 6 7 7 9 12
18 16 16 17 16 14 14 13 13 13 13 12 12 12 12 12 12 11 10 9 8 9 10 11 10 11 11 10 9 9 8 8 9 8 7 8 9 10 10 10 10 10 9 10 10 9 10 9 7 6 6 5 5 4 2 4 8 9 7 7 8 10 12
19 18 18 17 16 14 14 13 13 12 12 12 12 12 11 11 11 11 10 9 8 9 10 11 11 11 11 10 9 8 7 8 9 8 8 8 9 10 10 11 11 11 10 10 10 9 9 9 7 6 5 3 4 4 2 2 5 9 9 9 10 11 13
19 20 19 17 16 15 14 13 12 12 12 12 12 12 11 11 11 11 11 9 8 9 11 11 11 11 11 10 9 7 6 7 8 8 8 9 10 10 11 11 11 10 10 10 8 7 7 6 5 4 3 2 2 3 3 3 4 7 10 11 12 12 13
19 20 18 16 16 15 14 13 12 12 12 12 12 11 10 11 12 12 11 10 9 9 11 11 11 10 10 9 8 8 8 8 8 8 8 9 9 10 10 11 10 10 10 9 7 6 5 5 3 2 2 3 3 3 3 4 6 6 8 10 11 12 13
16 19 18 16 16 15 14 14 12 11 12 12 11 10 10 11 11 11 11 10 10 10 10 11 11 10 10 9 8 8 9 9 9 8 8 8 8 8 9 9 9 9 8 7 6 5 5 4 3 2 2 3 3 2 2 4 6 7 8 9 10 10 11
11 16 17 16 17 16 15 14 13 11 11 11 11 10 10 11 11 11 10 9 9 10 10 11 10 10 10 9 9 9 9 9 9 8 8 7 7 7 7 8 8 7 7 6 6 5 5 4 3 2 2 2 2 2 2 3 5 7 8 8 9 9 10
11 12 15 16 17 16 15 14 12 11 11 11 11 10 10 10 10 10 9 8 8 9 9 10 10 10 10 9 9 9 8 8 8 8 7 7 6 6 6 6 6 6 5 5 5 5 4 4 3 3 2 2 2 1 2 3 4 6 8 8 9 10 10
12 10 11 13 15 15 14 13 11 10 10 10 10 10 10 10 9 9 9 8 8 8 9 10 9 9 10 9 9 8 7 8 8 8 7 6 6 5 5 5 5 5 4 4 5 5 4 4 3 3 3 2 2 3 4 4 5 6 7 8 9 9 10
15 13 9 10 13 13 13 12 11 11 10 9 8 8 8 9 9 9 9 8 8 8 8 8 9 9 9 9 8 7 6 6 6 6 6 5 5 4 4 4 4 4 5 5 5 5 4 4 4 3 2 2 3 3 4 5 6 6 7 8 8 9 10
16 14 11 11 12 12 12 12 11 11 10 8 7 6 6 6 7 8 9 9 8 8 7 8 9 10 9 8 7 6 6 6 5 5 5 5 5 4 4 4 4 5 5 5 4 4 4 4 3 3 4 4 4 4 5 5 6 6 7 7 8 9 10
19 19 17 15 15 15 14 13 13 12 11 10 8 7 6 6 6 7 7 8 8 7 7 8 9 9 8 8 6 4 5 5 5 5 5 6 5 5 6 6 6 6 6 6 6 5 4 4 4 4 4 5 6 6 7 7 7 7 8 8 9 9 10
21 21 21 20 19 18 15 13 12 10 10 10 9 8 7 6 6 7 7 8 7 6 6 7 7 8 8 8 7 5 4 5 6 6 6 7 6 6 6 7 7 6 7 7 7 6 6 7 6 7 7 7 8 9 9 10 11 10 10 10 10 11 11
18 18 19 18 16 14 11 8 6 6 7 7 6 8 8 7 7 8 8 8 7 5 4 4 5 7 7 8 8 7 6 5 6 7 7 7 7 7 7 8 8 7 8 9 9 8 8 9 9 10 11 11 12 12 13 13 14 14 13 12 12 12 12
15 16 16 16 15 14 12 10 8 8 8 8 7 7 8 8 8 9 8 8 7 4 2 2 3 6 6 7 8 8 7 7 8 8 8 8 8 8 8 8 8 9 9 9 9 9 9 9 10 12 13 13 14 15 16 17 17 17 17 17 16 15 14
18 18 17 17 17 15 13 12 12 12 12 12 11 10 10 9 10 10 9 8 6 4 2 1 1 3 4 5 6 5 5 6 7 7 7 8 8 9 9 9 10 11 10 10 10 11 10 10 10 11 12 13 14 15 16 18 18 18 18 18 17 16 16
19 19 20 21 20 18 17 15 14 14 14 15 15 15 14 13 13 12 11 8 7 6 5 3 2 1 2 3 3 2 3 4 4 5 5 6 6 7 7 7 8 8 9 9 10 12 12 11 11 12 13 14 15 15 16 17 19 19 18 18 19 19 19
19 18 19 21 20 20 19 17 16 16 17 17 17 18 18 17 16 16 15 12 10 9 7 6 4 3 1 0 1 1 1 3 3 4 4 5 5 6 7 8 9 10 10 10 10 12 13 12 12 12 14 15 16 15 16 17 19 20 19 19 21 21 22
21 18 17 17 18 19 18 17 17 18 17 17 16 17 17 16 15 14 13 12 10 8 7 6 5 3 2 1 0 1 1 2 2 3 3 4 5 6 8 11 13 12 12 11 12 13 14 12 12 13 14 15 16 16 16 16 16 18 19 19 20 22 22
22 21 19 18 18 18 17 16 16 15 14 14 14 14 13 13 12 10 9 8 7 5 4 3 2 1 1 1 0 1 1 2 2 2 3 3 5 6 7 9 10 11 11 12 14 14 13 13 13 14 15 15 16 17 17 14 14 15 16 16 18 19 19
19 19 18 18 18 17 16 15 15 14 12 12 13 11 10 10 10 9 7 6 4 2 1 1 2 2 2 3 3 2 1 2 3 4 5 6 7 8 7 7 9 12 13 14 15 15 14 15 15 14 14 14 16 16 15 15 15 16 14 14 14 14 15
14 14 13 13 13 13 13 13 13 12 10 10 11 10 9 8 8 7 6 5 4 2 1 1 2 3 4 5 5 4 3 4 6 6 6 7 7 8 8 6 7 12 15 15 15 15 15 16 16 16 16 16 17 17 16 16 15 15 15 15 15 14 12
14 12 11 11 10 10 10 10 10 9 8 8 8 8 7 6 5 5 3 2 1 1 2 3 4 5 6 6 7 5 4 6 7 6 6 6 7 7 7 5 8 14 17 16 16 17 18 17 18 19 20 21 21 20 20 19 16 14 14 15 16 16 13
13 12 11 10 9 8 8 7 7 7 6 6 6 5 5 4 4 3 2 1 1 3 4 5 7 7 8 8 9 8 8 8 8 7 7 7 8 8 6 6 9 15 17 17 17 18 19 19 19 21 22 22 21 19 19 21 20 17 16 17 17 17 16
11 10 9 8 7 7 6 6 5 5 5 4 4 4 4 3 2 2 1 1 1 2 3 3 5 7 7 7 7 7 8 8 8 9 9 8 8 8 9 10 14 17 18 17 18 18 19 19 19 20 19 18 17 17 19 20 19 17 17 19 18 17 17
Wind_Direction
169 165 163 162 164 162 162 164 165 169 174 175 173 170 168 165 166 167 168 168 171 175 174 175 176 174 173 171 174 179 181 184 187 187 169 171 185 180 185 203 194 127 152 188 231 174 141 128 116 108 96 87 80 78 79 80 84 85 85 88 89 90 88
164 157 157 156 158 159 160 162 164 166 170 170 169 169 168 165 162 161 163 166 170 174 174 175 172 165 163 165 170 173 175 177 180 189 176 182 201 189 182 198 191 176 177 179 222 230 140 137 139 127 116 104 86 81 80 85 91 92 92 95 96 95 91
159 154 154 149 152 156 159 161 162 164 164 163 164 166 165 162 160 160 164 168 168 170 171 170 165 157 154 156 164 168 169 171 173 186 195 193 205 205 189 194 190 182 180 167 174 197 152 136 136 140 143 132 110 97 92 96 101 101 100 103 106 102 99
155 151 151 148 153 156 160 162 162 163 162 161 163 163 163 162 162 163 165 167 164 166 166 167 166 158 150 150 154 159 164 171 169 178 205 206 199 204 199 202 205 189 179 172 164 168 165 139 136 139 136 131 124 118 116 118 116 110 106 105 105 103 102
153 153 153 153 157 159 162 163 163 164 162 164 165 163 164 162 159 155 154 156 160 165 164 163 167 160 151 150 151 155 160 168 173 176 190 193 194 200 196 206 228 184 176 171 155 156 155 141 143 137 131 134 130 122 125 129 122 114 112 110 108 107 107
159 160 156 157 161 164 164 164 166 166 165 168 167 165 165 161 155 149 148 149 152 161 162 157 160 160 156 153 151 152 154 162 173 180 183 180 190 199 188 190 192 167 165 154 148 150 139 139 145 138 137 142 135 128 132 134 126 119 117 116 115 115 112
168 166 163 163 165 168 167 166 168 167 166 168 167 167 166 162 157 150 147 140 137 146 152 150 150 153 154 151 145 141 145 155 162 170 173 172 185 197 187 185 179 165 152 144 154 156 146 145 149 148 148 145 139 136 137 138 136 129 122 120 120 118 113
178 174 169 167 168 170 167 166 168 165 165 166 166 168 168 165 158 149 142 131 128 136 141 141 141 142 141 138 134 130 135 145 151 159 164 166 176 184 184 182 175 166 152 149 160 158 148 147 150 155 153 145 142 140 138 140 139 131 126 124 120 118 119
191 183 175 172 172 170 164 164 165 164 163 162 163 166 168 167 159 149 141 129 128 135 136 136 136 136 134 131 130 127 128 136 144 151 154 159 168 173 177 180 175 168 156 151 155 149 143 141 146 155 154 148 144 140 141 142 133 129 134 134 125 124 129
199 187 178 174 172 168 163 163 163 162 161 159 159 163 166 166 159 153 143 131 131 135 136 137 133 133 133 131 130 126 125 131 137 142 146 150 159 166 171 175 171 160 150 147 145 140 139 134 137 149 153 151 148 146 151 145 134 140 147 146 136 138 140
199 187 181 178 172 168 165 164 164 163 160 157 157 161 164 163 159 156 146 135 136 138 139 139 135 134 133 131 128 123 125 129 130 133 136 140 149 156 160 163 159 145 140 141 137 137 138 133 133 138 133 129 133 139 143 135 133 141 148 151 143 145 149
197 186 180 177 174 173 170 167 168 166 162 160 159 160 162 163 162 160 153 144 141 141 142 140 137 134 131 129 127 121 120 121 119 121 124 130 136 142 147 148 141 134 136 137 136 138 140 138 136 127 111 101 99 107 128 131 128 135 148 154 144 148 156
193 184 178 176 177 178 174 171 171 169 166 165 163 163 164 165 166 165 160 153 146 145 145 142 138 135 132 131 129 125 122 121 116 111 113 123 126 128 136 137 130 129 135 137 137 141 145 146 144 125 111 107 104 108 132 133 129 134 151 160 155 158 162
187 181 179 178 179 178 176 174 172 170 168 167 167 168 167 167 169 169 165 158 151 148 146 143 139 138 136 133 130 129 128 127 122 112 108 118 122 120 123 126 125 126 130 134 137 141 145 148 149 135 125 125 124 128 152 138 134 140 151 164 166 168 169
182 183 181 178 178 176 175 173 169 167 168 167 167 169 168 168 171 170 166 161 152 148 148 144 142 141 141 137 134 133 134 132 127 119 113 118 126 125 123 124 125 124 126 132 137 141 145 151 159 155 148 152 149 153 174 165 149 152 159 172 175 173 176
181 184 181 177 177 175 171 169 166 165 165 164 166 168 168 170 172 170 166 161 152 148 148 146 144 144 144 142 140 137 137 137 135 132 126 124 128 131 131 130 129 129 132 136 139 139 140 153 170 168 166 184 199 203 201 204 198 175 168 175 183 180 181
179 183 180 177 176 171 169 168 166 163 161 162 163 163 166 170 171 168 165 164 159 151 149 150 149 147 146 145 142 138 137 140 142 141 136 130 130 132 135 136 137 140 141 140 142 141 141 155 174 175 185 205 211 225 224 222 230 214 187 182 190 191 184
175 179 177 175 172 169 168 168 164 160 158 159 159 158 162 169 170 168 167 167 166 157 153 154 154 151 148 144 142 140 139 139 141 141 137 134 133 133 135 139 141 143 145 146 149 151 153 165 185 190 210 223 204 197 232 232 229 227 214 196 192 196 190
175 176 173 170 170 168 168 166 163 159 156 155 157 159 163 168 171 170 168 170 171 164 157 155 155 155 153 151 148 144 141 142 143 142 141 140 140 140 141 144 146 150 153 156 157 159 161 166 183 186 204 252 220 163 202 230 225 223 225 216 200 197 196
172 172 169 166 166 165 165 164 159 156 154 153 156 160 164 169 172 170 166 167 168 164 158 155 153 154 155 156 153 149 147 147 145 144 144 141 139 141 146 149 154 158 161 161 160 163 165 167 176 173 169 221 237 200 210 217 212 211 218 223 213 205 207
160 158 157 158 159 158 158 157 151 147 146 147 154 161 165 166 168 167 163 161 162 161 158 153 151 154 156 157 155 154 155 154 151 148 147 143 139 138 143 147 152 154 156 160 159 161 168 168 169 168 164 184 210 225 229 222 218 216 215 221 221 217 219
165 159 142 141 146 145 144 142 137 136 137 142 150 154 159 166 169 167 159 155 155 155 154 153 154 157 156 157 160 161 160 160 160 158 154 153 153 156 159 156 159 165 168 171 169 168 172 171 171 177 178 196 213 228 241 242 238 236 230 229 229 226 226
152 146 129 123 122 120 121 122 122 124 128 135 141 141 146 154 162 163 159 155 150 148 150 154 159 162 159 159 163 165 167 170 173 174 174 175 175 182 189 186 189 198 200 196 193 190 184 180 188 193 196 212 227 237 245 248 250 253 249 246 243 238 237
139 138 134 127 118 115 117 115 112 112 118 129 137 144 148 142 148 155 151 145 141 145 158 162 164 169 173 176 177 175 180 186 190 194 196 195 194 196 201 202 208 220 225 222 222 226 224 218 221 225 226 232 240 245 246 247 251 252 252 254 254 249 247
133 134 134 132 127 124 123 116 111 110 118 125 127 135 144 149 156 148 131 129 137 153 173 179 180 186 193 202 208 210 211 210 207 209 211 210 209 204 203 205 210 218 227 228 228 233 243 250 252 252 254 254 254 255 252 253 256 255 255 259 259 258 258
120 126 133 136 136 139 143 142 142 145 144 143 134 128 129 132 135 128 125 135 141 150 176 198 211 214 216 222 226 228 232 231 225 223 224 223 223 218 215 218 219 222 232 240 240 236 240 251 258 260 261 259 259 259 257 256 257 258 260 261 260 260 260
118 128 140 146 152 166 181 185 183 175 166 168 163 143 133 130 125 118 120 126 117 105 128 202 228 231 231 233 237 238 237 238 240 240 239 238 238 234 229 231 234 233 238 246 246 238 236 244 252 257 259 256 255 257 258 257 256 256 259 259 259 261 263
119 124 132 139 144 152 161 163 161 157 153 151 148 142 139 137 130 119 110 107 97 82 75 91 209 220 221 226 231 230 230 238 243 244 244 244 246 247 244 245 248 248 246 244 240 236 236 239 242 246 249 250 250 252 253 252 249 251 254 255 255 257 261
109 113 122 128 131 131 130 129 132 134 135 133 131 131 130 127 124 121 113 108 107 101 92 82 86 159 202 221 224 222 237 245 243 244 245 243 246 251 249 247 252 256 255 248 242 243 246 243 243 248 251 253 254 254 251 248 247 249 251 252 253 254 257
97 100 107 114 118 121 120 118 119 121 122 119 116 118 118 115 115 117 116 114 114 108 97 87 78 74 75 194 214 219 277 267 256 260 262 259 262 261 256 261 268 272 276 268 254 253 255 250 247 250 253 255 256 254 252 252 254 256 255 254 256 257 258
98 96 95 98 104 109 112 113 116 119 116 111 108 108 109 109 108 111 114 114 112 106 97 86 75 69 61 42 108 110 358 302 279 279 278 277 283 278 274 278 275 266 262 259 252 253 256 253 250 251 254 256 257 255 255 254 255 259 260 258 257 257 258
97 98 97 97 101 106 108 109 112 113 111 112 112 109 110 111 109 110 117 124 124 121 111 94 68 57 34 356 27 99 51 1 330 318 309 295 288 279 275 280 276 260 249 248 250 254 258 255 252 254 258 260 259 259 261 260 255 256 261 261 259 257 257
86 90 92 96 100 103 105 107 110 109 109 112 113 111 114 117 115 111 113 118 123 136 175 235 268 280 297 311 320 329 318 303 301 305 299 288 283 279 271 268 269 266 260 255 253 254 254 252 249 250 256 260 261 263 268 269 259 249 250 258 259 254 254
74 75 77 85 92 97 100 102 103 101 101 108 114 114 113 113 114 114 112 108 102 106 177 238 289 290 285 293 307 316 297 270 272 281 285 277 270 270 269 264 262 262 260 260 259 257 256 254 251 249 248 249 251 253 260 267 264 255 252 254 252 246 243
68 67 66 70 75 79 84 87 87 88 91 98 106 109 106 101 101 102 110 124 116 305 291 294 303 301 295 292 296 302 292 274 273 283 292 286 272 265 268 271 269 269 271 274 277 277 276 273 267 261 256 253 251 251 253 256 256 256 254 248 242 241 237
60 59 58 60 63 63 64 67 69 73 80 86 91 92 88 89 97 94 82 44 324 327 322 313 307 304 303 301 301 301 293 284 282 280 280 285 288 291 294 286 275 279 286 291 290 288 287 285 281 277 274 269 265 259 253 250 248 248 248 243 239 241 240
51 50 49 51 55 57 58 60 61 62 65 71 82 85 79 74 83 88 79 65 13 350 346 328 314 316 318 312 303 298 294 292 290 285 281 285 292 292 289 283 279 282 288 289 286 285 285 284 283 283 282 278 270 259 250 245 243 241 241 240 239 241 240
Height
815 817 819 821 823 825 827 829 830 832 832 833 834 834 834 835 836 837 837 838 839 840 841 842 843 844 845 847 848 849 849 850 850 850 851 852 853 853 854 854 853 853 853 853 852 851 853 858 863 864 865 866 866 867 868 869 870 870 871 871 872 872 872
814 816 819 821 823 825 827 829 830 832 833 833 834 834 835 836 836 837 838 839 840 840 841 842 842 844 845 846 847 848 849 850 850 851 851 852 852 852 853 854 853 853 853 854 853 852 851 856 861 863 865 866 868 869 870 871 871 872 872 873 873 873 874
815 816 818 821 823 825 827 829 831 832 833 834 834 835 835 836 836 837 838 839 840 840 841 841 842 843 844 846 847 848 849 849 850 851 851 851 852 852 852 852 852 852 853 853 854 854 852 855 859 861 863 865 867 870 872 872 872 873 873 874 874 875 875
815 816 818 820 823 825 827 829 831 832 833 834 835 835 836 836 837 838 838 839 839 840 841 841 842 843 844 845 846 847 849 849 850 851 851 851 852 852 852 852 852 852 852 852 853 855 854 854 857 859 861 864 866 870 872 872 873 873 874 875 875 876 877
815 816 818 820 823 825 827 829 831 832 833 834 835 836 836 837 837 838 839 839 840 840 841 841 842 842 843 844 846 847 848 849 850 850 851 851 852 852 852 852 852 852 853 853 853 855 855 855 856 859 862 863 865 868 871 872 873 873 874 875 876 877 878
815 817 818 821 823 825 827 829 830 831 833 834 835 836 836 837 837 838 839 840 840 841 841 841 842 842 843 844 845 846 847 849 849 850 851 852 853 853 853 854 854 854 854 854 855 856 857 857 858 860 862 863 864 866 869 871 872 874 875 876 877 878 879
817 818 819 821 823 825 827 828 830 831 833 834 835 836 836 837 838 838 839 840 840 841 841 841 842 842 843 844 845 846 847 848 849 850 851 852 853 853 854 854 854 855 855 856 857 856 857 859 859 861 862 863 864 864 866 869 871 873 875 877 878 879 880
818 819 820 821 823 824 826 828 830 831 832 834 835 836 836 837 838 838 839 840 841 841 841 842 842 843 843 844 845 846 847 848 848 850 851 852 853 853 854 855 855 856 856 857 857 856 857 859 860 861 861 862 863 863 864 866 869 872 875 877 878 880 881
819 820 821 822 823 824 825 827 829 831 832 834 835 836 837 837 838 839 839 840 841 841 842 842 843 843 844 845 846 846 847 847 848 849 850 851 852 853 854 855 855 856 857 857 857 857 858 859 860 861 861 861 862 863 864 866 869 872 875 877 878 880 881
819 820 821 822 824 825 826 827 829 831 832 834 835 836 837 837 838 839 840 840 841 842 842 843 844 844 844 845 846 847 847 848 849 849 850 851 852 853 854 855 855 855 857 857 858 859 860 860 861 862 861 861 860 862 864 866 869 872 874 876 877 880 881
819 819 821 823 824 826 827 828 829 831 832 834 835 836 837 838 838 839 840 840 841 842 843 843 844 845 845 846 847 848 848 849 849 849 850 850 851 852 853 854 855 855 857 858 859 860 861 861 862 862 862 861 860 860 862 865 869 871 873 875 876 878 881
818 819 821 823 824 826 827 828 830 831 832 834 835 836 837 838 839 839 840 841 841 842 843 844 844 845 846 846 847 848 849 849 850 850 850 850 850 851 852 853 854 855 857 858 859 860 861 862 863 863 863 863 863 863 862 864 868 871 873 875 876 878 880
817 819 820 823 824 826 827 829 830 831 832 834 835 836 837 837 838 839 840 841 841 842 843 844 845 845 846 847 848 849 849 850 850 850 851 850 850 851 852 853 854 856 857 858 859 861 862 863 863 863 864 865 865 865 864 864 867 871 874 875 876 878 879
816 818 820 822 824 825 827 828 830 831 832 834 834 835 836 837 838 839 840 840 841 842 843 843 845 845 846 848 848 849 850 850 850 851 851 852 852 852 853 854 855 856 857 858 860 861 862 863 864 863 864 865 866 866 865 864 866 870 874 875 876 877 878
815 817 819 822 823 825 827 828 830 831 832 833 834 835 836 837 838 839 839 840 841 842 842 843 845 846 847 848 849 850 850 850 851 852 852 852 853 854 854 855 856 857 858 859 860 861 862 863 863 863 864 865 865 866 866 865 866 869 872 874 875 876 877
814 817 819 821 823 825 826 828 829 830 832 833 834 835 836 837 838 838 839 840 841 841 842 843 845 846 847 848 849 850 851 851 852 852 853 853 854 855 855 856 857 858 859 860 861 861 862 863 863 863 864 865 865 866 867 867 867 867 870 872 873 874 875
814 816 819 821 823 825 826 828 829 830 831 832 833 835 836 837 838 839 839 840 840 841 842 843 845 846 847 848 849 850 851 851 852 853 853 854 854 855 856 856 857 858 859 860 861 862 863 864 863 864 864 865 866 866 867 867 867 867 868 870 872 872 874
815 816 819 821 823 825 826 828 829 830 831 832 833 835 836 837 838 839 839 840 841 841 842 843 844 845 847 848 849 850 850 851 852 853 854 854 855 855 856 857 858 859 859 860 861 862 863 864 864 864 864 864 864 865 867 867 867 867 867 868 870 871 872
817 817 819 820 822 824 826 828 829 830 831 832 833 834 836 837 838 839 839 840 841 841 842 843 844 845 846 848 849 850 851 851 852 853 854 854 855 856 856 857 858 858 859 860 861 862 862 863 863 863 864 863 863 865 866 867 867 867 867 867 868 870 871
817 818 819 820 822 824 826 827 828 829 830 831 833 834 836 837 838 839 839 840 841 842 842 843 844 845 846 847 849 850 851 852 852 853 854 855 855 856 857 857 858 858 859 860 860 861 862 863 863 863 864 864 864 865 866 866 866 866 866 866 867 868 869
816 819 820 821 823 824 825 827 828 829 830 832 833 835 836 837 838 838 839 840 841 842 843 843 844 845 846 847 848 849 850 851 852 853 854 854 855 856 857 858 858 859 859 860 860 861 862 862 862 863 863 864 865 865 865 865 865 865 865 865 865 866 867
815 818 821 823 824 824 825 826 827 829 831 832 834 835 836 837 838 839 839 840 841 842 843 844 844 845 846 847 848 849 850 851 852 852 853 854 855 856 857 858 858 859 859 860 861 861 861 862 862 862 863 864 864 864 864 864 863 863 863 863 863 863 864
814 818 821 824 825 825 826 827 828 830 831 833 834 835 836 837 838 839 840 840 842 842 843 843 844 844 845 846 847 849 850 850 851 852 853 853 854 855 856 857 858 858 859 860 860 861 861 862 862 862 863 863 864 864 864 864 863 863 862 861 861 861 861
813 816 819 822 824 825 827 828 829 831 832 833 834 835 836 837 838 839 840 841 841 842 842 843 843 844 845 846 847 848 849 850 851 852 852 853 853 854 855 856 857 858 858 859 860 860 861 861 861 862 862 862 863 863 863 863 863 862 862 861 860 860 860
814 816 819 821 823 824 826 828 830 831 832 834 834 835 836 837 838 839 840 840 840 841 842 843 843 844 845 846 847 848 849 850 851 852 852 852 853 853 854 855 856 857 857 858 859 859 860 860 860 861 861 861 862 862 862 862 862 861 861 861 860 860 859
817 819 821 823 824 825 826 829 831 832 833 834 835 835 836 837 839 840 839 839 839 840 842 843 844 844 845 846 847 848 849 850 851 851 852 852 853 853 853 854 855 856 856 856 857 858 859 859 859 859 860 860 860 860 860 860 860 860 860 859 859 859 859
818 820 821 823 824 826 828 829 831 832 833 834 835 835 836 837 838 840 839 838 839 840 842 843 844 844 845 846 847 848 849 850 850 851 851 852 852 852 853 853 853 854 855 855 856 857 858 858 858 858 858 858 858 858 858 858 858 858 858 857 857 857 857
819 820 821 823 825 827 828 829 831 832 832 834 835 835 836 837 838 840 838 837 839 840 842 844 844 844 845 845 846 847 848 849 849 850 850 851 851 851 852 852 852 853 853 854 854 855 855 856 856 856 856 856 856 856 856 855 855 855 855 855 855 855 855
821 822 823 825 826 828 829 830 832 833 833 834 835 835 836 838 838 838 837 838 841 843 844 845 845 844 845 845 846 847 847 848 849 849 849 850 850 850 850 851 851 851 851 852 852 852 853 854 854 854 854 854 854 853 853 852 852 853 853 853 852 852 852
824 825 826 827 828 829 830 832 833 833 834 835 836 837 837 838 838 838 838 840 843 844 845 845 845 844 844 845 845 846 847 847 848 848 848 849 849 849 849 849 849 850 850 850 850 851 851 851 852 852 852 851 851 851 850 849 849 849 850 849 849 849 849
826 827 829 829 830 831 832 833 834 834 835 836 837 838 838 838 838 838 839 841 843 843 844 844 844 844 844 844 845 845 846 847 847 847 847 848 848 848 848 847 848 849 849 849 849 849 849 849 849 850 850 849 849 848 848 847 846 846 846 846 846 846 846
829 830 831 831 832 833 834 835 835 836 836 837 837 838 838 838 839 840 840 842 842 843 843 843 844 844 844 844 844 845 845 846 846 847 847 847 847 847 847 846 846 847 847 847 846 847 847 847 847 848 848 847 846 845 845 845 845 844 844 844 843 843 842
832 833 833 834 834 835 836 836 837 837 837 837 838 838 839 839 840 841 842 842 842 842 843 843 843 843 843 843 843 844 844 845 845 846 846 846 846 846 846 846 845 845 844 844 843 844 844 844 844 845 845 845 844 843 842 843 842 842 842 842 842 841 840
835 835 836 836 836 837 837 837 838 838 838 838 839 839 840 840 841 842 842 842 842 842 843 843 843 842 842 842 843 843 844 845 846 846 845 845 845 846 845 845 844 843 842 841 841 841 841 841 841 841 841 841 841 840 840 840 840 840 840 840 840 840 839
836 837 837 838 838 838 838 838 839 839 839 839 840 840 840 841 841 841 841 841 842 842 842 842 842 842 842 842 842 842 843 844 845 845 844 844 845 844 844 844 842 840 840 840 839 839 839 839 838 838 838 837 837 837 838 838 838 838 837 837 837 837 837
839 839 839 839 839 840 840 840 840 840 840 840 841 841 841 841 841 841 841 841 841 842 842 841 841 842 842 841 841 842 842 843 843 843 843 843 843 842 841 841 840 838 838 838 837 837 837 836 836 835 835 835 835 835 835 835 835 835 835 834 834 834 834
841 841 841 841 841 841 841 841 841 841 841 841 841 841 841 842 842 842 842 842 842 842 842 842 842 842 842 841 841 841 841 841 840 840 840 840 840 840 839 838 837 836 836 835 835 834 834 833 833 832 832 832 832 832 832 831 832 832 832 831 830 830 830